"startDT [UTC]","vpos","CH4 [ppm]","stdev(CH4) [ppm]","CO2 [ppm]","stdev(CO2) [ppm]","H2O_reported [%]","stdev(H2O_reported)","CavityPressure [torr]","CavityTemp [C]","OutletValve","CH4_dry [ppm]","CO2_dry [ppm]","DasTemp [C]","EtalonTemp [C]","WarmBoxTemp [C]","MPVPosition","T_ECpre [C]","T_EC1 [C]","T_EC2 [C]","p_inlet [hPa]","p_in [hPa]","p_out [hPa]","T_inlet [C]","RH_inlet [%]","dwpt_inlet [C]","T_vent [C]","RH_vent [%]","dwpt_vent [C]","flow_vent [l min-1]","flow_inlet [l min-1]","dwpt_sample [C]","T_room [C]"
2015-01-05 00:00:00,0.0,1.96857,0.00038,407.220,0.029,0.0315,0.0021,140.000,45.000,28993.55156,1.96920,407.374,30.006,45.069,45.000,0.00,0.09,-272.68,-272.74,-4,197,2,16.8,1.4,-36.6,17.2,2.7,-29.6,5.73,2.28,-24.5,23.2
2015-01-05 00:01:00,0.0,1.96823,0.00035,407.203,0.026,0.0316,0.0015,139.999,45.000,28994.44113,1.96885,407.359,30.002,45.069,45.000,0.00,0.09,-272.70,-272.73,-4,198,2,16.8,1.4,-36.7,17.2,2.7,-29.6,5.73,2.67,-24.5,23.2
2015-01-05 00:02:00,0.0,1.96863,0.00036,407.209,0.036,0.0314,0.0014,140.001,45.000,28997.33033,1.96923,407.363,30.015,45.069,45.000,0.00,0.09,-272.69,-272.75,-3,198,2,16.8,1.4,-36.7,17.2,2.7,-29.6,5.73,2.70,-24.5,23.2
2015-01-05 00:03:00,0.0,1.96811,0.00044,407.207,0.030,0.0315,0.0017,139.998,45.000,29000.76731,1.96874,407.361,30.008,45.069,45.001,0.00,0.09,-272.67,-272.75,-2,199,2,16.8,1.4,-36.7,17.2,2.7,-29.6,5.73,2.29,-24.5,23.3
2015-01-05 00:04:00,0.0,1.96819,0.00042,407.170,0.044,0.0321,0.0015,139.998,45.000,28999.09876,1.96882,407.327,30.053,45.069,45.000,0.00,0.09,-272.70,-272.73,-3,198,2,16.8,1.4,-36.7,17.2,2.7,-29.6,5.73,2.55,-24.5,23.3
2015-01-05 00:05:00,0.0,1.96794,0.00044,407.130,0.036,0.0323,0.0019,139.999,45.000,28997.00448,1.96857,407.289,30.054,45.069,45.000,0.00,0.09,-272.69,-272.75,-4,198,2,16.8,1.4,-36.7,17.2,2.7,-29.6,5.73,2.77,-24.5,23.3
2015-01-05 00:06:00,0.0,1.96818,0.00034,407.131,0.035,0.0320,0.0023,139.998,45.000,28996.46614,1.96878,407.287,30.049,45.068,45.000,0.00,0.09,-272.67,-272.76,-3,197,2,16.8,1.4,-36.7,17.2,2.7,-29.6,5.73,2.37,-24.5,23.3
2015-01-05 00:07:00,0.0,1.96819,0.00036,407.154,0.038,0.0324,0.0031,140.000,45.000,28996.13076,1.96879,407.313,30.059,45.069,45.000,0.00,0.09,-272.69,-272.73,-2,198,2,16.8,1.4,-36.7,17.2,2.7,-29.6,5.73,2.40,-24.5,23.3
2015-01-05 00:08:00,0.0,1.96858,0.00043,407.112,0.045,0.0320,0.0018,139.999,45.000,28995.99479,1.96923,407.271,30.060,45.068,45.000,0.00,0.09,-272.70,-272.74,-3,197,2,16.8,1.4,-36.7,17.3,2.7,-29.6,5.73,2.77,-24.5,23.3
2015-01-05 00:09:00,0.0,1.96612,0.00035,406.849,0.042,0.0328,0.0012,139.999,45.000,28993.56044,1.96681,407.009,30.063,45.068,45.000,0.00,0.09,-272.68,-272.76,-4,198,2,16.8,1.4,-36.5,17.2,2.7,-29.6,5.73,2.53,-24.5,23.3
2015-01-05 00:10:00,0.0,1.96700,0.00034,406.989,0.038,0.0330,0.0020,140.001,45.000,28994.48887,1.96760,407.148,30.067,45.068,45.000,0.00,0.09,-272.68,-272.74,-3,198,2,16.8,1.4,-36.3,17.3,2.7,-29.6,5.73,2.26,-24.5,23.3
2015-01-05 00:11:00,0.0,1.96722,0.00061,406.985,0.064,0.0330,0.0017,140.004,45.000,28994.13059,1.96783,407.146,30.098,45.068,45.000,0.00,0.09,-272.71,-272.73,-2,197,2,16.8,1.4,-36.3,17.3,2.7,-29.6,5.73,2.66,-24.5,23.3
2015-01-05 00:12:00,0.0,1.96858,0.00031,407.110,0.042,0.0321,0.0026,139.998,45.000,28996.00496,1.96918,407.265,30.115,45.068,45.000,0.00,0.09,-272.68,-272.75,-3,197,2,16.8,1.4,-36.4,17.3,2.7,-29.6,5.73,2.66,-24.5,23.2
2015-01-05 00:13:00,0.0,1.96862,0.00040,407.168,0.038,0.0315,0.0017,139.998,45.000,28992.74010,1.96923,407.322,30.115,45.068,45.000,0.00,0.09,-272.67,-272.76,-4,197,2,16.8,1.4,-36.7,17.3,2.7,-29.6,5.73,2.26,-24.5,23.3
2015-01-05 00:14:00,0.0,1.96859,0.00036,407.233,0.033,0.0314,0.0015,139.999,45.000,28988.99056,1.96921,407.387,30.124,45.068,45.000,0.00,0.09,-272.70,-272.73,-3,197,2,16.8,1.4,-36.7,17.3,2.7,-29.6,5.73,2.49,-24.5,23.3
2015-01-05 00:15:00,0.0,1.96872,0.00042,407.214,0.029,0.0312,0.0020,140.000,45.000,28993.87833,1.96931,407.366,30.122,45.068,45.000,0.00,0.09,-272.70,-272.74,-2,197,2,16.8,1.4,-36.7,17.3,2.7,-29.6,5.73,2.77,-24.5,23.3
2015-01-05 00:16:00,0.0,1.96844,0.00047,407.138,0.040,0.0313,0.0012,140.000,45.000,28996.82660,1.96909,407.293,30.126,45.068,45.000,0.00,0.09,-272.67,-272.76,-3,197,2,16.8,1.4,-36.7,17.3,2.6,-29.7,5.73,2.41,-24.5,23.3
2015-01-05 00:17:00,0.0,1.96817,0.00026,407.151,0.031,0.0321,0.0023,139.998,45.000,28998.20321,1.96878,407.307,30.125,45.068,45.000,0.00,0.09,-272.68,-272.74,-4,198,2,16.8,1.4,-36.7,17.3,2.6,-29.7,5.73,2.35,-24.5,23.3
2015-01-05 00:18:00,0.0,1.96775,0.00043,407.112,0.053,0.0322,0.0016,140.000,45.000,28996.10170,1.96839,407.272,30.128,45.068,45.000,0.00,0.09,-272.71,-272.73,-4,198,2,16.8,1.4,-36.6,17.3,2.6,-29.7,5.73,2.78,-24.5,23.3
2015-01-05 00:19:00,0.0,1.96775,0.00056,407.073,0.031,0.0331,0.0013,140.000,45.000,28990.57878,1.96834,407.235,30.140,45.069,45.000,0.00,0.09,-272.67,-272.76,-2,197,2,16.8,1.4,-36.5,17.3,2.6,-29.7,5.73,2.54,-24.5,23.3
2015-01-05 00:20:00,0.0,1.96705,0.00053,406.958,0.042,0.0326,0.0022,139.997,45.000,28986.64235,1.96773,407.119,30.182,45.069,45.000,0.00,0.09,-272.67,-272.75,-3,197,2,16.8,1.4,-36.5,17.3,2.6,-29.7,5.73,2.30,-24.5,23.3
2015-01-05 00:21:00,0.0,1.96716,0.00053,406.910,0.025,0.0331,0.0017,139.998,45.000,28979.75824,1.96777,407.072,30.188,45.068,45.000,0.00,0.09,-272.70,-272.73,-4,195,2,16.8,1.4,-36.5,17.3,2.6,-29.7,5.73,2.65,-24.5,23.3
2015-01-05 00:22:00,0.0,1.96668,0.00049,406.861,0.031,0.0331,0.0013,140.000,45.000,28977.50804,1.96734,407.024,30.185,45.068,45.000,0.00,0.09,-272.69,-272.75,-4,196,2,16.8,1.4,-36.3,17.3,2.6,-29.7,5.73,2.70,-24.5,23.3
2015-01-05 00:23:00,0.0,1.96720,0.00061,406.907,0.034,0.0331,0.0019,139.999,45.000,28975.63909,1.96781,407.066,30.187,45.068,45.000,0.00,0.09,-272.66,-272.76,-3,195,2,16.8,1.4,-36.2,17.3,2.6,-29.7,5.73,2.34,-24.5,23.3
2015-01-05 00:24:00,0.0,1.96803,0.00043,406.980,0.039,0.0331,0.0019,140.003,45.000,28978.25556,1.96868,407.142,30.190,45.068,45.000,0.00,0.09,-272.69,-272.73,-2,195,2,16.8,1.4,-36.4,17.3,2.6,-29.7,5.73,2.43,-24.5,23.3
2015-01-05 00:25:00,0.0,1.96836,0.00054,407.038,0.040,0.0328,0.0023,140.002,45.000,28976.61365,1.96898,407.196,30.189,45.068,45.000,0.00,0.09,-272.70,-272.74,-4,195,2,16.8,1.4,-36.5,17.3,2.6,-29.7,5.73,2.75,-24.5,23.3
2015-01-05 00:26:00,0.0,1.96836,0.00080,406.957,0.073,0.0317,0.0018,140.001,45.000,28977.42927,1.96902,407.116,30.223,45.068,45.000,0.00,0.09,-272.67,-272.76,-4,196,2,16.8,1.4,-36.4,17.3,2.6,-29.7,5.73,2.53,-24.4,23.3
2015-01-05 00:27:00,0.0,1.96730,0.00060,406.881,0.045,0.0335,0.0014,139.998,45.000,28974.11049,1.96796,407.043,30.224,45.068,45.000,0.00,0.09,-272.68,-272.74,-3,196,2,16.8,1.4,-36.2,17.3,2.6,-29.7,5.73,2.29,-24.5,23.3
2015-01-05 00:28:00,0.0,1.96786,0.00072,406.937,0.043,0.0365,0.0019,139.997,45.000,28972.51476,1.96850,407.113,30.191,45.068,45.000,0.00,0.09,-272.71,-272.72,-3,195,2,16.8,1.6,-35.4,17.3,2.6,-29.7,5.73,2.61,-24.5,23.3
2015-01-05 00:29:00,0.0,1.96866,0.00080,406.983,0.025,0.0341,0.0022,140.000,45.000,28978.78710,1.96931,407.150,30.179,45.068,45.000,0.00,0.09,-272.69,-272.75,-4,196,2,16.8,1.5,-35.7,17.2,2.6,-29.7,5.73,2.72,-24.5,23.3
2015-01-05 00:30:00,0.0,1.96899,0.00054,407.032,0.030,0.0329,0.0016,140.002,45.000,28984.51171,1.96961,407.192,30.151,45.068,45.000,0.00,0.09,-272.67,-272.75,-4,196,2,16.7,1.4,-36.2,17.2,2.6,-29.7,5.73,2.34,-24.5,23.2
2015-01-05 00:31:00,0.0,1.96967,0.00046,407.057,0.031,0.0324,0.0017,139.999,45.000,28988.69492,1.97030,407.215,30.153,45.069,45.000,0.00,0.09,-272.70,-272.74,-4,198,2,16.7,1.4,-36.5,17.2,2.6,-29.7,5.73,2.44,-24.5,23.3
2015-01-05 00:32:00,0.0,1.96980,0.00072,407.056,0.040,0.0322,0.0015,139.997,45.000,28985.05578,1.97044,407.214,30.132,45.069,45.000,0.00,0.09,-272.70,-272.74,-2,197,2,16.7,1.4,-36.6,17.2,2.6,-29.8,5.73,2.76,-24.5,23.3
2015-01-05 00:33:00,0.0,1.96902,0.00047,407.010,0.033,0.0323,0.0015,139.999,45.000,28985.35997,1.96965,407.169,30.127,45.069,45.000,0.00,0.09,-272.66,-272.76,-3,197,2,16.7,1.4,-36.7,17.2,2.6,-29.7,5.73,2.50,-24.5,23.3
2015-01-05 00:34:00,0.0,1.96856,0.00040,406.945,0.033,0.0326,0.0018,139.998,45.000,28984.73007,1.96924,407.105,30.125,45.069,45.000,0.00,0.09,-272.69,-272.74,-4,197,2,16.7,1.4,-36.6,17.2,2.6,-29.7,5.73,2.31,-24.5,23.3
2015-01-05 00:35:00,0.0,1.96853,0.00035,406.970,0.044,0.0326,0.0017,139.998,45.000,28985.92598,1.96912,407.130,30.123,45.069,45.000,0.00,0.09,-272.71,-272.74,-4,197,2,16.7,1.4,-36.5,17.2,2.6,-29.8,5.73,2.68,-24.5,23.3
2015-01-05 00:36:00,0.0,1.96854,0.00060,406.929,0.042,0.0320,0.0027,140.000,45.000,28984.99134,1.96922,407.087,30.121,45.069,45.000,0.00,0.09,-272.68,-272.75,-3,198,2,16.7,1.4,-36.5,17.2,2.6,-29.7,5.73,2.66,-24.5,23.3
2015-01-05 00:37:00,0.0,1.96702,0.00035,406.765,0.046,0.0325,0.0016,140.000,45.000,28985.42478,1.96768,406.926,30.081,45.069,45.000,0.00,0.09,-272.67,-272.75,-2,196,2,16.7,1.4,-36.5,17.2,2.6,-29.7,5.73,2.31,-24.5,23.2
2015-01-05 00:38:00,0.0,1.96670,0.00027,406.679,0.032,0.0335,0.0017,140.002,45.000,28987.97952,1.96735,406.843,30.064,45.069,45.000,0.00,0.09,-272.70,-272.74,-4,197,2,16.7,1.4,-36.3,17.2,2.6,-29.7,5.73,2.48,-24.5,23.2
2015-01-05 00:39:00,0.0,1.96769,0.00060,406.774,0.065,0.0328,0.0017,139.996,45.000,28985.89778,1.96827,406.932,30.063,45.069,45.000,0.00,0.09,-272.70,-272.74,-4,197,2,16.7,1.4,-36.3,17.2,2.6,-29.7,5.73,2.77,-24.5,23.2
2015-01-05 00:40:00,0.0,1.96776,0.00041,406.807,0.029,0.0331,0.0020,140.000,45.000,28981.49745,1.96843,406.970,30.062,45.069,45.000,0.00,0.09,-272.67,-272.75,-3,196,2,16.7,1.4,-36.4,17.2,2.6,-29.7,5.73,2.47,-24.5,23.2
2015-01-05 00:41:00,0.0,1.96774,0.00055,406.801,0.046,0.0326,0.0014,139.998,45.000,28981.56756,1.96835,406.960,30.047,45.069,45.000,0.00,0.09,-272.69,-272.74,-2,198,2,16.7,1.4,-36.4,17.1,2.6,-29.8,5.73,2.33,-24.5,23.2
2015-01-05 00:42:00,0.0,1.96837,0.00037,406.864,0.033,0.0325,0.0011,140.002,45.000,28983.79279,1.96900,407.021,30.041,45.069,45.000,0.00,0.09,-272.71,-272.74,-3,196,2,16.6,1.4,-36.6,17.1,2.7,-29.7,5.73,2.68,-24.5,23.2
2015-01-05 00:43:00,0.0,1.96873,0.00045,406.899,0.030,0.0323,0.0017,140.003,45.000,28984.69083,1.96930,407.056,30.015,45.069,45.000,0.00,0.09,-272.68,-272.75,-4,197,2,16.6,1.4,-36.6,17.1,2.7,-29.7,5.73,2.69,-24.5,23.2
2015-01-05 00:44:00,0.0,1.96895,0.00053,406.914,0.026,0.0314,0.0019,139.997,45.000,28982.88019,1.96962,407.069,30.003,45.069,45.000,0.00,0.09,-272.68,-272.75,-4,198,2,16.6,1.4,-36.8,17.1,2.7,-29.7,5.73,2.32,-24.5,23.2
2015-01-05 00:45:00,0.0,1.96861,0.00038,406.892,0.028,0.0316,0.0013,140.000,45.000,28986.24319,1.96918,407.046,30.000,45.069,45.000,0.00,0.09,-272.69,-272.74,-3,197,2,16.6,1.4,-36.8,17.1,2.7,-29.7,5.73,2.35,-24.5,23.2
2015-01-05 00:46:00,0.0,1.96859,0.00041,406.851,0.020,0.0319,0.0018,139.998,45.000,28993.38781,1.96922,407.008,29.994,45.069,45.000,0.00,0.09,-272.70,-272.74,-2,199,2,16.6,1.4,-36.8,17.1,2.7,-29.7,5.73,2.68,-24.5,23.2
2015-01-05 00:47:00,0.0,1.96778,0.00036,406.813,0.031,0.0317,0.0015,140.001,45.000,28991.65663,1.96842,406.969,29.999,45.069,45.000,0.00,0.09,-272.67,-272.76,-3,197,2,16.6,1.4,-36.8,17.1,2.7,-29.7,5.73,2.51,-24.5,23.2
2015-01-05 00:48:00,0.0,1.96743,0.00054,406.791,0.045,0.0317,0.0017,140.001,45.000,28995.44781,1.96803,406.945,29.997,45.068,45.000,0.00,0.09,-272.68,-272.75,-4,198,2,16.6,1.4,-36.6,17.1,2.7,-29.7,5.73,2.23,-24.5,23.2
2015-01-05 00:49:00,0.0,1.96732,0.00042,406.763,0.049,0.0322,0.0017,139.997,45.000,28997.25349,1.96796,406.921,29.999,45.069,45.000,0.00,0.09,-272.71,-272.74,-3,199,2,16.7,1.4,-36.6,17.1,2.7,-29.7,5.73,2.55,-24.5,23.2
2015-01-05 00:50:00,0.0,1.96670,0.00040,406.686,0.031,0.0318,0.0014,140.000,45.000,28998.67598,1.96732,406.844,29.978,45.068,45.000,0.00,0.09,-272.69,-272.74,-2,198,2,16.7,1.4,-36.6,17.1,2.7,-29.7,5.73,2.69,-24.5,23.2
2015-01-05 00:51:00,0.0,1.96717,0.00020,406.714,0.032,0.0332,0.0013,139.999,45.000,28998.38513,1.96782,406.875,29.973,45.069,45.000,0.00,0.09,-272.67,-272.76,-3,199,2,16.7,1.4,-36.6,17.1,2.7,-29.7,5.73,2.33,-24.5,23.2
2015-01-05 00:52:00,0.0,1.96685,0.00038,406.696,0.036,0.0323,0.0014,139.999,45.000,28995.72090,1.96746,406.854,29.974,45.069,45.000,0.00,0.09,-272.70,-272.74,-4,198,2,16.7,1.4,-36.6,17.1,2.7,-29.7,5.73,2.37,-24.5,23.2
2015-01-05 00:53:00,0.0,1.96711,0.00041,406.697,0.029,0.0323,0.0014,140.000,45.000,28993.13822,1.96773,406.855,29.949,45.068,45.000,0.00,0.09,-272.71,-272.73,-3,198,2,16.7,1.4,-36.6,17.1,2.7,-29.7,5.73,2.67,-24.5,23.2
2015-01-05 00:54:00,0.0,1.96641,0.00049,406.679,0.034,0.0323,0.0014,140.002,45.000,28992.64016,1.96706,406.836,29.935,45.069,45.000,0.00,0.09,-272.67,-272.75,-2,199,2,16.7,1.4,-36.6,17.1,2.6,-29.8,5.73,2.58,-24.6,23.2
2015-01-05 00:55:00,0.0,1.96674,0.00055,406.703,0.041,0.0323,0.0017,139.998,45.000,28990.98610,1.96734,406.861,29.908,45.069,45.000,0.00,0.09,-272.69,-272.75,-2,197,2,16.7,1.4,-36.4,17.1,2.6,-29.8,5.73,2.30,-24.6,23.2
2015-01-05 00:56:00,0.0,1.96630,0.00072,406.669,0.079,0.0332,0.0019,140.000,45.000,28992.23105,1.96704,406.834,29.899,45.069,45.000,0.00,0.09,-272.70,-272.73,-4,199,2,16.7,1.4,-36.4,17.1,2.6,-29.8,5.73,2.61,-24.6,23.2
2015-01-05 00:57:00,0.0,1.96639,0.00035,406.655,0.039,0.0332,0.0016,139.998,45.000,28991.40689,1.96695,406.816,29.933,45.069,45.000,0.00,0.09,-272.68,-272.74,-4,198,2,16.7,1.4,-36.4,17.1,2.6,-29.8,5.73,2.75,-24.6,23.2
2015-01-05 00:58:00,0.0,1.96711,0.00059,406.676,0.041,0.0329,0.0017,139.999,45.000,28993.57452,1.96776,406.836,29.915,45.069,45.000,0.00,0.09,-272.67,-272.76,-3,199,2,16.7,1.4,-36.4,17.1,2.6,-29.8,5.73,2.38,-24.5,23.2
2015-01-05 00:59:00,0.0,1.96635,0.00042,406.686,0.030,0.0325,0.0016,140.001,45.000,28995.88715,1.96697,406.844,29.886,45.069,45.000,0.00,0.09,-272.70,-272.74,-2,198,2,16.7,1.4,-36.3,17.2,2.6,-29.8,5.73,2.40,-24.6,23.2
2015-01-05 01:00:00,0.0,1.96666,0.00076,406.648,0.051,0.0331,0.0014,139.998,45.000,28996.78055,1.96731,406.810,29.875,45.069,45.000,0.00,0.09,-272.70,-272.74,-3,198,2,16.7,1.4,-36.4,17.1,2.6,-29.8,5.73,2.77,-24.6,23.2
2015-01-05 01:01:00,0.0,1.96590,0.00030,406.581,0.027,0.0323,0.0015,140.002,45.000,28999.71644,1.96654,406.741,29.888,45.069,45.000,0.00,0.09,-272.67,-272.76,-4,199,2,16.7,1.4,-36.4,17.1,2.6,-29.8,5.73,2.56,-24.6,23.2
2015-01-05 01:02:00,0.0,1.96508,0.00043,406.502,0.032,0.0329,0.0014,139.999,45.000,29001.21726,1.96574,406.665,29.905,45.069,45.000,0.00,0.09,-272.69,-272.75,-3,199,2,16.7,1.4,-36.4,17.1,2.6,-29.9,5.73,2.28,-24.6,23.2
2015-01-05 01:03:00,0.0,1.96585,0.00060,406.489,0.022,0.0336,0.0018,140.001,45.000,29001.25646,1.96645,406.653,29.930,45.069,45.000,0.00,0.09,-272.71,-272.73,-2,199,2,16.7,1.4,-36.3,17.1,2.6,-29.9,5.73,2.66,-24.5,23.2
2015-01-05 01:04:00,0.0,1.96572,0.00042,406.457,0.031,0.0331,0.0015,140.001,45.000,29003.63269,1.96637,406.619,29.939,45.069,45.000,0.00,0.09,-272.68,-272.75,-3,198,2,16.7,1.4,-36.3,17.2,2.6,-29.8,5.73,2.71,-24.5,23.2
2015-01-05 01:05:00,0.0,1.96614,0.00042,406.499,0.031,0.0331,0.0016,140.000,45.000,29005.41298,1.96678,406.661,29.940,45.068,45.000,0.00,0.09,-272.68,-272.76,-4,200,2,16.7,1.4,-36.4,17.1,2.6,-29.8,5.73,2.30,-24.6,23.2
2015-01-05 01:06:00,0.0,1.96627,0.00038,406.527,0.028,0.0332,0.0016,140.000,45.000,28999.20293,1.96692,406.688,29.949,45.068,44.999,0.00,0.09,-272.70,-272.73,-3,199,2,16.7,1.4,-36.4,17.2,2.6,-29.8,5.73,2.48,-24.6,23.2
2015-01-05 01:07:00,0.0,1.96600,0.00039,406.496,0.028,0.0333,0.0018,139.999,45.000,28999.34715,1.96664,406.660,29.964,45.068,45.000,0.00,0.09,-272.69,-272.74,-2,199,2,16.7,1.4,-36.4,17.1,2.6,-29.8,5.73,2.77,-24.6,23.2
2015-01-05 01:08:00,0.0,1.96620,0.00054,406.530,0.026,0.0326,0.0020,140.001,45.000,29005.65500,1.96684,406.688,29.985,45.068,44.999,0.00,0.09,-272.67,-272.76,-2,199,2,16.7,1.4,-36.4,17.1,2.6,-29.8,5.73,2.47,-24.6,23.2
2015-01-05 01:09:00,0.0,1.96622,0.00037,406.521,0.040,0.0326,0.0011,139.999,45.000,29005.41852,1.96684,406.682,29.983,45.068,44.999,0.00,0.09,-272.69,-272.74,-4,199,2,16.7,1.4,-36.5,17.1,2.6,-29.8,5.73,2.32,-24.6,23.2
2015-01-05 01:10:00,0.0,1.96531,0.00075,406.430,0.062,0.0328,0.0018,139.998,45.000,29004.38732,1.96592,406.588,29.964,45.068,45.000,0.00,0.09,-272.70,-272.73,-4,200,2,16.7,1.4,-36.4,17.1,2.6,-29.8,5.73,2.69,-24.6,23.2
2015-01-05 01:11:00,0.0,1.96654,0.00063,406.454,0.051,0.0327,0.0017,140.001,45.000,29005.62747,1.96721,406.618,29.939,45.068,45.000,0.00,0.09,-272.68,-272.75,-2,199,2,16.7,1.4,-36.4,17.1,2.6,-29.8,5.73,2.67,-24.6,23.2
2015-01-05 01:12:00,0.0,1.96561,0.00067,406.436,0.030,0.0333,0.0016,139.998,45.000,29010.65198,1.96624,406.597,29.938,45.068,45.000,0.00,0.09,-272.68,-272.76,-2,200,2,16.7,1.4,-36.4,17.1,2.6,-29.8,5.73,2.29,-24.6,23.2
2015-01-05 01:13:00,0.0,1.96582,0.00035,406.462,0.031,0.0335,0.0017,140.003,45.000,29016.08020,1.96650,406.625,29.939,45.069,45.000,0.00,0.09,-272.70,-272.73,-3,200,2,16.7,1.4,-36.4,17.1,2.6,-29.8,5.73,2.53,-24.5,23.2
2015-01-05 01:14:00,0.0,1.96457,0.00040,406.339,0.033,0.0327,0.0014,140.001,45.000,29018.85893,1.96521,406.501,29.973,45.069,45.000,0.00,0.09,-272.69,-272.74,-4,201,2,16.7,1.4,-36.3,17.1,2.6,-29.8,5.73,2.77,-24.6,23.2
2015-01-05 01:15:00,0.0,1.96480,0.00049,406.304,0.028,0.0321,0.0018,140.000,45.000,29020.14549,1.96545,406.462,29.963,45.069,45.000,0.00,0.09,-272.67,-272.76,-2,201,2,16.7,1.4,-36.4,17.1,2.6,-29.9,5.73,2.35,-24.6,23.2
2015-01-05 01:16:00,0.0,1.96460,0.00025,406.293,0.030,0.0340,0.0017,139.998,45.000,29016.85387,1.96524,406.458,29.990,45.069,45.000,0.00,0.09,-272.70,-272.74,-2,201,2,16.7,1.4,-36.3,17.1,2.6,-29.8,5.73,2.41,-24.6,23.2
2015-01-05 01:17:00,0.0,1.96474,0.00033,406.303,0.029,0.0327,0.0016,139.999,45.000,29018.98508,1.96535,406.461,29.998,45.068,45.000,0.00,0.09,-272.69,-272.74,-3,200,2,16.7,1.4,-36.3,17.1,2.6,-29.8,5.73,2.79,-24.6,23.2
2015-01-05 01:18:00,0.0,1.96446,0.00043,406.288,0.034,0.0327,0.0023,140.003,45.000,29017.12996,1.96512,406.449,30.002,45.068,45.000,0.00,0.09,-272.67,-272.76,-4,201,2,16.7,1.4,-36.3,17.2,2.6,-29.8,5.73,2.46,-24.6,23.2
2015-01-05 01:19:00,0.0,1.96491,0.00038,406.340,0.041,0.0331,0.0020,139.999,45.000,29019.84486,1.96551,406.499,30.000,45.068,45.000,0.00,0.09,-272.70,-272.74,-2,201,2,16.7,1.4,-36.2,17.2,2.6,-29.8,5.73,2.32,-24.6,23.2
2015-01-05 01:20:00,0.0,1.96559,0.00049,406.378,0.038,0.0333,0.0017,140.000,45.000,29016.58382,1.96622,406.539,29.999,45.068,45.000,0.00,0.09,-272.70,-272.73,-2,201,2,16.7,1.4,-36.3,17.1,2.6,-29.9,5.73,2.75,-24.6,23.2
2015-01-05 01:21:00,0.0,1.96592,0.00073,406.425,0.061,0.0326,0.0020,140.002,45.000,29019.93912,1.96652,406.585,29.989,45.068,45.000,0.00,0.09,-272.68,-272.75,-3,200,2,16.7,1.4,-36.3,17.1,2.6,-29.9,5.73,2.59,-24.6,23.2
2015-01-05 01:22:00,0.0,1.96672,0.00049,406.465,0.036,0.0320,0.0018,139.999,45.000,29024.73987,1.96732,406.619,29.995,45.068,45.000,0.00,0.09,-272.68,-272.75,-4,202,2,16.7,1.4,-36.5,17.2,2.6,-29.8,5.73,2.27,-24.6,23.2
2015-01-05 01:23:00,0.0,1.96778,0.00034,406.650,0.031,0.0320,0.0018,140.000,45.000,29027.46714,1.96839,406.805,29.999,45.069,45.000,0.00,0.09,-272.70,-272.73,-2,202,2,16.7,1.4,-36.6,17.2,2.6,-29.9,5.73,2.68,-24.6,23.2
2015-01-05 01:24:00,0.0,1.96842,0.00054,406.680,0.030,0.0311,0.0014,139.998,45.000,29027.41567,1.96899,406.831,30.000,45.069,45.000,0.00,0.09,-272.68,-272.75,-2,202,2,16.7,1.4,-36.7,17.2,2.6,-29.9,5.73,2.67,-24.5,23.2
2015-01-05 01:25:00,0.0,1.96799,0.00044,406.644,0.044,0.0316,0.0022,139.997,45.000,29028.68835,1.96865,406.800,30.007,45.069,45.000,0.00,0.09,-272.68,-272.76,-4,202,2,16.7,1.4,-36.7,17.2,2.6,-29.9,5.73,2.26,-24.6,23.2
2015-01-05 01:26:00,0.0,1.96838,0.00052,406.645,0.050,0.0320,0.0016,140.002,45.000,29027.79130,1.96901,406.802,30.018,45.069,45.000,0.00,0.09,-272.71,-272.73,-4,202,2,16.7,1.4,-36.8,17.2,2.6,-29.9,5.73,2.61,-24.5,23.2
2015-01-05 01:27:00,0.0,1.96542,0.00094,406.341,0.107,0.0315,0.0015,140.000,45.000,29027.31604,1.96613,406.501,30.041,45.069,45.000,0.00,0.09,-272.68,-272.74,-2,202,2,16.8,1.4,-36.7,17.2,2.6,-29.9,5.73,2.73,-24.5,23.2
2015-01-05 01:28:00,0.0,1.96473,0.00054,406.224,0.046,0.0336,0.0016,139.999,45.000,29023.78387,1.96536,406.387,30.053,45.069,45.000,0.00,0.09,-272.67,-272.76,-2,201,2,16.8,1.4,-36.3,17.2,2.6,-29.8,5.73,2.28,-24.6,23.2
2015-01-05 01:29:00,0.0,1.96459,0.00061,406.190,0.056,0.0340,0.0018,140.003,45.000,29024.55392,1.96525,406.357,30.027,45.068,45.000,0.00,0.09,-272.71,-272.73,-4,201,2,16.8,1.4,-36.1,17.2,2.6,-29.8,5.73,2.56,-24.5,23.2
2015-01-05 01:30:00,0.0,1.96496,0.00043,406.238,0.044,0.0341,0.0017,139.998,45.000,29022.82989,1.96563,406.403,30.020,45.069,45.000,0.00,0.09,-272.68,-272.75,-3,201,2,16.8,1.5,-36.1,17.2,2.6,-29.9,5.73,2.76,-24.5,23.2
2015-01-05 01:31:00,0.0,1.96495,0.00046,406.249,0.047,0.0339,0.0018,139.999,45.000,29020.71287,1.96557,406.414,30.030,45.068,45.000,0.00,0.09,-272.67,-272.76,-2,202,2,16.8,1.5,-36.1,17.2,2.6,-29.9,5.73,2.29,-24.5,23.2
2015-01-05 01:32:00,0.0,1.96580,0.00047,406.339,0.035,0.0344,0.0010,140.000,45.000,29022.53297,1.96645,406.505,30.058,45.069,45.000,0.00,0.09,-272.71,-272.73,-3,200,2,16.8,1.4,-36.2,17.2,2.6,-30.0,5.73,2.51,-24.5,23.2
2015-01-05 01:33:00,0.0,1.96596,0.00031,406.392,0.035,0.0328,0.0018,139.997,45.000,29021.45373,1.96658,406.551,30.060,45.068,45.000,0.00,0.09,-272.70,-272.74,-4,201,2,16.8,1.4,-36.3,17.2,2.6,-30.0,5.73,2.79,-24.5,23.2
2015-01-05 01:34:00,0.0,1.96652,0.00027,406.435,0.046,0.0330,0.0016,139.999,45.000,29024.27202,1.96713,406.595,30.063,45.068,45.000,0.00,0.09,-272.67,-272.76,-3,202,2,16.8,1.4,-36.3,17.2,2.6,-30.0,5.73,2.32,-24.6,23.2
2015-01-05 01:35:00,0.0,1.96700,0.00050,406.460,0.035,0.0328,0.0013,140.000,45.000,29025.46983,1.96765,406.619,30.024,45.069,45.000,0.00,0.09,-272.70,-272.73,-2,201,2,16.8,1.4,-36.5,17.2,2.6,-30.0,5.73,2.46,-24.5,23.2
2015-01-05 01:36:00,0.0,1.96654,0.00044,406.479,0.039,0.0331,0.0013,140.003,45.000,29026.14577,1.96717,406.641,30.003,45.069,45.000,0.00,0.09,-272.70,-272.74,-3,201,2,16.8,1.4,-36.5,17.2,2.6,-29.9,5.73,2.80,-24.5,23.2
2015-01-05 01:37:00,0.0,1.96648,0.00043,406.477,0.031,0.0324,0.0016,140.001,45.000,29029.69276,1.96710,406.634,30.000,45.069,45.000,0.00,0.09,-272.67,-272.76,-4,202,2,16.8,1.4,-36.5,17.2,2.6,-29.9,5.73,2.36,-24.5,23.2
2015-01-05 01:38:00,0.0,1.96723,0.00038,406.501,0.031,0.0328,0.0022,139.998,45.000,29030.66136,1.96785,406.662,30.017,45.069,45.000,0.00,0.09,-272.70,-272.73,-2,203,2,16.8,1.4,-36.5,17.2,2.6,-30.0,5.73,2.42,-24.5,23.2
2015-01-05 01:39:00,0.0,1.96723,0.00036,406.564,0.056,0.0317,0.0017,140.000,45.000,29030.71149,1.96784,406.716,30.033,45.069,45.001,0.00,0.09,-272.70,-272.75,-2,202,2,16.8,1.4,-36.6,17.2,2.6,-30.0,5.73,2.82,-24.5,23.2
2015-01-05 01:40:00,0.0,1.96714,0.00035,406.549,0.044,0.0311,0.0013,139.996,45.000,29027.54955,1.96774,406.701,30.059,45.069,45.000,0.00,0.09,-272.67,-272.76,-4,201,2,16.8,1.4,-36.7,17.3,2.6,-29.9,5.73,2.34,-24.5,23.2
2015-01-05 01:41:00,0.0,1.96778,0.00047,406.590,0.040,0.0323,0.0014,140.001,45.000,29026.99231,1.96839,406.747,30.063,45.069,45.000,0.00,0.09,-272.70,-272.73,-4,202,2,16.8,1.4,-36.7,17.2,2.6,-29.9,5.73,2.44,-24.5,23.2
2015-01-05 01:42:00,0.0,1.96799,0.00052,406.588,0.031,0.0309,0.0023,140.003,45.000,29030.75721,1.96857,406.739,30.063,45.068,45.000,0.00,0.09,-272.70,-272.74,-2,202,2,16.8,1.3,-36.8,17.3,2.6,-29.9,5.73,2.81,-24.5,23.2
2015-01-05 01:43:00,0.0,1.96826,0.00026,406.600,0.019,0.0310,0.0013,139.998,45.000,29027.00108,1.96888,406.751,30.063,45.068,45.000,0.00,0.09,-272.67,-272.77,-3,201,2,16.8,1.3,-36.9,17.3,2.6,-29.9,5.73,2.31,-24.5,23.2
2015-01-05 01:44:00,0.0,1.96776,0.00057,406.542,0.066,0.0312,0.0013,140.000,45.000,29025.94491,1.96838,406.696,30.063,45.068,45.000,0.00,0.09,-272.70,-272.73,-4,202,2,16.8,1.3,-36.9,17.3,2.6,-29.9,5.73,2.48,-24.5,23.3
2015-01-05 01:45:00,0.0,1.96780,0.00080,406.549,0.051,0.0312,0.0015,140.001,45.000,29026.45359,1.96838,406.699,30.068,45.068,45.000,0.00,0.09,-272.70,-272.74,-3,202,2,16.9,1.3,-36.9,17.2,2.6,-30.0,5.73,2.80,-24.5,23.2
2015-01-05 01:46:00,0.0,1.96823,0.00051,406.568,0.037,0.0318,0.0020,140.001,45.000,29025.30999,1.96884,406.723,30.071,45.068,45.000,0.00,0.09,-272.67,-272.76,-2,201,2,16.8,1.3,-36.8,17.3,2.6,-29.9,5.73,2.30,-24.5,23.3